Tracking 19224 objects as of 22-Jul-2018
HD Live streaming from Space Station
objects crossing your sky now

FENGYUN 1C DEB

Track FENGYUN 1C DEB now!
10-day predictions


NORAD ID: 33716
Int'l Code: 1999-025DHD
Perigee: 728.1 km
Apogee: 864.9 km
Inclination: 99.0 °
Period: 100.6 minutes
Semi major axis: 7167 km
RCS: 0.0093 m2 (small)
Launch date: May 10, 1999
Source: People's Republic of China (PRC)
Launch site: Taiyaun Space Center, China (TSC)

Note: This is SATELLITE DEBRIS
aabbcc
Your satellite tracking list
Your tracking list is empty




NASA's NSSDC Master Catalog

Two Line Element Set (TLE):
1 33716U 99025DHD 18201.69853006  .00000030  00000-0  28761-4 0  9995
2 33716  99.0301   6.9150 0095452 309.5496  49.7279 14.30706916562835
Source of the keplerian elements: AFSPC